Location: U-46 Planetarium
(42.0300°N, 88.2740°W)
Time: 02:43:43
(UTC-05:00)

Cosmos 2266 Rocket - Pass Details

Date: 16 December 2017
Orbit: 935 x 1008 km, 82.9° (Epoch: 20 July)

Event Time Altitude Azimuth Distance (km) Brightness Sun altitude
Rises 17:42:09 0° 352° (N) 3,613 6.9 -14.2°
Reaches altitude 10° 17:44:38 10° 353° (N) 2,671 6.2 -14.6°
Maximum altitude 17:50:45 88° 84° (E) 961 3.9 -15.7°
Drops below altitude 10° 17:56:56 10° 174° (S) 2,698 6.4 -16.8°
Sets 17:59:27 0° 174° (S) 3,652 7.1 -17.2°
